User: anonymous   Login
Location: Meriden
(44.0740°N, 93.3870°W)
Time: 19:44:47
(UTC-06:00)
Language:

AO-27 - Orbit

View from above orbital plane
View from above orbital plane
View from above satellite
View from above satellite

Ground track
Ground track

The orbit data is extracted from the following two-line orbital elements,

1 22825U 93061C   15032.04551944  .00000169  00000-0  83058-4 0  8792
2 22825 098.6936 342.2466 0008056 355.0183 144.3292 14.29826939113488
Epoch (UTC): 01 February 2015 01:05:32
Eccentricity: 0.0008056
inclination: 98.6936°
perigee height: 786 km
apogee height: 798 km
right ascension of ascending node: 342.2466°
argument of perigee: 355.0183°
revolutions per day: 14.29826939
mean anomaly at epoch: 144.3292°
orbit number at epoch: 11348

The dashed part of the orbit path shows where the satellite is in the earth's shadow,  

DLR